Weather History for ENVA - May, 2013

Change the Weather History Date:

Sunday, May 19, 2013

  Actual Average Record
Temperature  
Mean Temperature 68 °F -  
Max Temperature 81 °F 57 °F 81 °F (2013)
Min Temperature 55 °F 43 °F 32 °F (2002)
Cooling Degree Days 3    
Growing Degree Days 18 (Base 50)    
Moisture  
Dew Point 51 °F    
Average Humidity 54    
Maximum Humidity 77    
Minimum Humidity 27    
Precipitation  
Precipitation 0.00 in 0.08 in - ()
Sea Level Pressure  
Sea Level Pressure 29.98 in    
Wind  
Wind Speed 6 mph ()    
Max Wind Speed 10 mph    
Max Gust Speed -    
Visibility 19.0 miles    
Events      
Averages and records for this station are not official NWS values.
T = Trace of Precipitation, MM = Missing Value Source: Averaged Metar Reports

Daily Weather History Graph

Daily Weather History Graph

Search for Another Location

Airport or City:

Trip Planner

Search our weather history database for the weather conditions in past years. The results will help you decide how hot, cold, wet, or windy it might be!

Date:

Astronomy

May. 19, 2013 Rise Set
Actual Time 3:56 AM CEST 10:30 PM CEST
Civil Twilight 2:11 AM CEST 12:22 AM CEST
Nautical Twilight Sun does not set Sun does not set
Astronomical Twilight Sun does not set Sun does not set
Moon 2:06 PM CEST (5/19) 2:31 AM CEST (5/19)
Length of Visible Light 22h 10m
Length of Day
18h 34m
Waxing Gibbous, 62% of the Moon is Illuminated
May 19
Waxing Gibbous
May 25
Full
May 31
Last Quarter
Jun 8
New
Jun 16
First Quarter

Hourly Weather History & Observations

Time (CEST) Temp. Dew Point Humidity Pressure Visibility Wind Dir Wind Speed Gust Speed Precip Events Conditions
12:50 AM 60.8 °F 50.0 °F 68% 30.04 in - Calm Calm - N/A   Clear
1:50 AM 57.2 °F 48.2 °F 72% 30.04 in - ESE 5.8 mph - N/A   Clear
2:00 AM 59 °F 49 °F 60% 30.05 in 28 mi ESE 8.9 mph - -   Clear
2:50 AM 59.0 °F 48.2 °F 67% 30.04 in - SE 8.1 mph - N/A   Clear
4:20 AM 55.4 °F 48.2 °F 77% 30.04 in - ESE 3.5 mph - N/A   Clear
4:50 AM 55.4 °F 48.2 °F 77% 30.04 in - ESE 5.8 mph - N/A   Clear
5:50 AM 57.2 °F 48.2 °F 72% 30.04 in - SE 8.1 mph - N/A   Clear
6:20 AM 59.0 °F 48.2 °F 67% 30.04 in - SE 9.2 mph - N/A   Clear
6:50 AM 59.0 °F 48.2 °F 67% 30.04 in - SE 5.8 mph - N/A   Clear
7:20 AM 60.8 °F 50.0 °F 68% 30.04 in - ESE 5.8 mph - N/A   Clear
7:50 AM 62.6 °F 50.0 °F 63% 30.04 in - East 4.6 mph - N/A   Clear
8:00 AM 64 °F 51 °F 52% 30.05 in 22 mi ESE 4.5 mph - -   Clear
8:20 AM 64.4 °F 51.8 °F 64% 30.04 in - ESE 5.8 mph - N/A   Clear
8:50 AM 66.2 °F 51.8 °F 60% 30.04 in - ESE 5.8 mph - N/A   Clear
9:20 AM 68.0 °F 51.8 °F 56% 30.04 in - SE 4.6 mph - N/A   Clear
9:50 AM 71.6 °F 53.6 °F 53% 30.04 in - West 8.1 mph - N/A   Clear
10:20 AM 64.4 °F 51.8 °F 64% 30.01 in - WSW 10.4 mph - N/A   Clear
10:50 AM 64.4 °F 51.8 °F 64% 30.01 in - West 10.4 mph - N/A   Clear
11:20 AM 64.4 °F 51.8 °F 64% 30.01 in - West 9.2 mph - N/A   Clear
11:50 AM 66.2 °F 51.8 °F 60% 30.01 in - West 10.4 mph - N/A   Clear
12:20 PM 64.4 °F 51.8 °F 64% 30.01 in - West 8.1 mph - N/A   Clear
12:50 PM 68.0 °F 51.8 °F 56% 29.98 in - West 8.1 mph - N/A   Clear
1:20 PM 68.0 °F 53.6 °F 60% 29.98 in - West 8.1 mph - N/A   Clear
1:50 PM 68.0 °F 53.6 °F 60% 29.98 in - West 6.9 mph - N/A   Clear
2:00 PM 69 °F 53 °F 47% 29.98 in 19 mi West 8.9 mph - -   Clear
2:20 PM 69.8 °F 53.6 °F 56% 29.98 in - West 6.9 mph - N/A   Clear
2:50 PM 71.6 °F 53.6 °F 53% 29.98 in - West 6.9 mph - N/A   Clear
3:20 PM 75.2 °F 55.4 °F 50% 29.95 in - West 3.5 mph - N/A   Clear
3:50 PM 78.8 °F 55.4 °F 44% 29.95 in - West 5.8 mph - N/A   Clear
4:20 PM 77.0 °F 55.4 °F 47% 29.95 in - West 6.9 mph - N/A   Clear
4:50 PM 78.8 °F 53.6 °F 42% 29.95 in - WSW 8.1 mph - N/A   Clear
5:20 PM 80.6 °F 48.2 °F 32% 29.95 in - WSW 8.1 mph - N/A   Clear
5:50 PM 80.6 °F 50.0 °F 34% 29.92 in - Calm Calm - N/A   Clear
6:20 PM 80.6 °F 50.0 °F 34% 29.92 in - East 9.2 mph - N/A   Clear
6:50 PM 78.8 °F 50.0 °F 36% 29.92 in - East 8.1 mph - N/A   Clear
7:20 PM 78.8 °F 51.8 °F 39% 29.92 in - ENE 4.6 mph - N/A   Clear
7:50 PM 80.6 °F 51.8 °F 37% 29.92 in - ENE 3.5 mph - N/A   Clear
8:00 PM 79 °F 51 °F 27% 29.93 in 22 mi NE 6.7 mph - -   Clear
8:20 PM 78.8 °F 50.0 °F 36% 29.92 in - ESE 10.4 mph - N/A   Clear
8:50 PM 77.0 °F 50.0 °F 39% 29.92 in - ENE 6.9 mph - N/A   Clear
9:20 PM 75.2 °F 50.0 °F 41% 29.92 in - ESE 5.8 mph - N/A   Clear
9:50 PM 73.4 °F 50.0 °F 44% 29.92 in - East 4.6 mph - N/A   Clear
10:20 PM 71.6 °F 50.0 °F 46% 29.92 in - SE 3.5 mph - N/A   Clear
10:50 PM 69.8 °F 51.8 °F 53% 29.92 in - East 3.5 mph - N/A   Clear
11:20 PM 68.0 °F 51.8 °F 56% 29.92 in - SE 6.9 mph - N/A   Clear
11:50 PM 68.0 °F 51.8 °F 56% 29.92 in - ESE 9.2 mph - N/A   Clear